Location: Hermaringen
(48.5952°N, 10.2585°E)
Time: 20:47:02
(UTC+00:00)

Resurs 1-3 - Pass Details

Date: 18 November 2025
Orbit: 613 x 615 km, 97.7° (Epoch: 05 December)

Event Time Altitude Azimuth Distance (km) Brightness Sun altitude
Rises 16:56:18 0° 140° (SE) 2,874 6.7 -13.2°
Reaches altitude 10° 16:58:38 10° 130° (SE) 1,973 5.8 -13.5°
Maximum altitude 17:02:27 33° 67° (ENE) 1,052 4.2 -14.1°
Drops below altitude 10° 17:06:18 10° 4° (N) 1,986 6.0 -14.8°
Sets 17:08:39 0° 355° (N) 2,895 6.9 -15.1°
